Regional Weather Roundup
Issued by NWS

Home | Current Version | Previous Version | Text Only | Print | Product List | Glossary Off
Versions: 1 2 3 4 5 6 7 8 9 10 11 12 13 14 15 16 17 18 19 20 21 22 23 24 25 26 27 28 29 30 31 32 33 34 35 36 37 38 39 40 41 42 43 44 45 46 47 48 49 50

000
ASUS43 KFSD 240910
RWRSD

WEATHER ROUNDUP FOR SOUTH DAKOTA
NATIONAL WEATHER SERVICE SIOUX FALLS SD
400 AM CDT FRI OCT 24 2014

NOTE: "FAIR" INDICATES FEW OR NO CLOUDS BELOW 12,000 FEET WITH NO
SIGNIFICANT WEATHER AND/OR OBSTRUCTIONS TO VISIBILITY.


SDZ001>005-009-010-012>017-241000-
NORTHWEST AND NORTH CENTRAL SOUTH DAKOTA

CITY           SKY/WX    TMP DP  RH WIND       PRES   REMARKS
BUFFALO          N/A     52  26  36 W7        29.82S
FAITH            N/A     49  29  46 SW8       29.88R
MOBRIDGE       MOCLDY    42  38  85 E5        29.82S
$$

SDZ012>016-024>037-041>051-057-063-072>074-241000-
SOUTHWEST AND SOUTH CENTRAL SOUTH DAKOTA

CITY           SKY/WX    TMP DP  RH WIND       PRES   REMARKS
RAPID CTY ARPT MOCLDY    49  31  49 W7        29.90F
PIERRE         MOCLDY    44  35  70 SW7       29.86R
CUSTER         CLOUDY    52  25  35 W7        30.01S
ELLSWORTH AFB  MOCLDY    48  32  53 W6        29.90F
PHILIP         CLOUDY    39  32  76 NW3       29.88F
PINE RIDGE     MOCLDY    36  33  89 NW3       29.95S
SPEARFISH      FAIR      46  30  53 W9        29.93F
WINNER         FAIR      55  34  45 SW8       29.88S
$$

SDZ004>011-016>023-039-040-241000-
NORTHEAST SOUTH DAKOTA

CITY           SKY/WX    TMP DP  RH WIND       PRES   REMARKS
ABERDEEN       MOCLDY    35  34  96 CALM      29.83F
WATERTOWN      MOCLDY    45  43  93 S6        29.84F
SISSETON         N/A     51  46  83 SW5       29.82S
$$

SDZ017-020-022-023-036>040-048>070-241000-
SOUTHEAST SOUTH DAKOTA

CITY           SKY/WX    TMP DP  RH WIND       PRES   REMARKS
SIOUX FALLS    MOCLDY    54  50  86 S9        29.85F
HURON          CLOUDY    45  44  97 S5        29.83S
CHAMBERLAIN    MOCLDY    44  35  71 W8        29.86S
MITCHELL       MOCLDY    50  49  96 SW6       29.84S
YANKTON        MOCLDY    57  54  88 SW8       29.86F
$$

ABBREVIATIONS USED IN REMARKS
   TC - TEMPERATURE IN CELSIUS
  WCI - WIND CHILL INDEX
   HX - HEAT INDEX
  VSB - VISIBILITY




USA.gov is the U.S. government's official web portal to all federal, state and local government web resources and services.